RH
38 40 45 54 57 58 60 61 61 65 68 71 74 78 79 80 81 82 82 86 93 93 91 93 90 87 90 90 90 91 90 89 88 77 74 74 75 75 74 74 75 71 73
41 42 50 56 56 59 59 59 62 66 67 70 76 82 85 82 82 85 88 89 95 96 91 96 93 93 93 91 94 94 91 88 88 87 78 77 77 77 78 78 81 82 83
42 48 55 53 54 55 57 59 62 64 66 73 79 82 83 87 84 84 90 94 97 95 92 95 89 95 96 95 95 94 93 93 92 93 87 81 81 82 82 82 81 80 80
41 49 52 52 54 57 60 61 63 66 72 75 77 82 84 84 88 93 96 92 88 88 88 94 95 97 98 98 100 97 96 98 97 95 90 86 83 81 80 81 81 79 78
45 50 52 54 55 61 62 64 67 73 74 76 79 76 78 82 95 97 93 92 95 97 92 97 100 94 100 100 97 97 98 98 95 92 88 85 83 79 78 75 77 76 74
49 53 55 56 60 62 65 70 74 71 75 74 74 78 85 88 93 85 87 97 95 99 99 100 100 99 93 88 79 74 90 98 96 91 85 84 79 76 74 75 75 77 86
54 56 58 60 64 69 73 73 72 75 76 77 80 83 84 84 96 88 88 96 96 93 95 98 99 98 95 91 90 86 81 84 85 98 93 88 80 78 77 81 83 86 82
58 60 61 65 73 73 73 80 79 78 81 85 85 85 90 87 96 88 88 94 97 91 87 86 95 88 87 97 89 85 85 96 96 95 94 99 94 90 86 92 90 87 86
63 65 68 72 73 76 80 79 80 83 86 85 87 88 89 82 82 86 82 90 83 81 89 88 94 95 95 78 72 74 94 97 90 90 89 90 95 91 98 97 99 94 87
69 72 72 75 79 76 81 81 82 84 88 89 90 90 80 81 69 90 80 85 80 94 93 91 93 79 74 68 65 91 98 94 97 89 90 93 81 98 95 99 99 96 92
75 76 77 76 79 79 83 83 82 92 90 91 94 83 73 69 73 91 78 81 81 81 90 94 90 81 70 67 86 93 97 85 98 98 92 94 100 97 94 96 92 91 88
78 83 81 79 78 87 87 87 88 88 85 89 86 79 71 73 74 95 80 72 75 92 94 91 88 74 92 84 69 82 85 98 89 96 96 92 99 98 93 95 92 92 82
84 82 81 79 85 87 86 87 90 83 85 89 93 94 90 83 86 85 85 82 84 77 88 85 71 85 78 76 84 88 90 94 98 98 96 96 96 98 98 98 98 97 97
86 86 82 90 88 87 86 84 85 86 93 94 96 98 98 100 90 84 82 92 91 91 91 97 84 79 78 82 86 89 95 97 98 98 96 97 95 97 97 100 100 99 99
94 88 91 88 91 93 86 86 92 91 90 96 98 99 99 98 91 91 82 86 92 92 91 78 71 80 95 93 92 92 95 96 98 97 98 98 97 97 97 96 99 99 98
93 94 90 93 96 88 93 91 91 88 84 83 86 89 95 85 82 80 82 76 84 71 96 82 90 94 100 98 96 95 96 96 97 98 98 98 97 97 97 97 97 98 98
100 93 92 94 90 97 96 100 96 84 88 88 89 87 86 89 83 78 90 75 85 76 88 93 100 100 99 99 99 99 97 97 96 97 98 98 98 98 96 96 96 97 96
95 99 96 91 97 99 100 97 97 98 96 92 89 92 91 88 85 90 88 89 82 88 93 98 100 100 100 100 100 100 99 98 98 99 98 98 98 98 97 96 96 97 97
96 94 89 97 95 92 87 97 98 96 99 98 92 86 91 94 96 87 91 90 100 100 98 100 96 100 100 100 100 100 100 99 97 97 97 97 97 98 97 97 98 90 92
97 100 95 98 83 90 96 100 100 100 100 98 98 96 90 100 96 90 93 96 100 100 100 100 95 97 100 100 100 100 100 100 98 98 97 97 97 99 97 97 97 97 95
100 95 96 84 89 95 100 99 100 100 100 100 98 98 94 98 95 98 100 100 98 97 98 100 98 95 94 96 98 100 100 100 100 100 100 98 97 97 98 98 98 98 98
100 100 91 90 94 94 96 100 97 100 100 100 100 96 98 93 100 100 99 100 99 98 96 97 98 99 98 97 96 98 99 100 100 100 100 100 99 99 99 98 98 98 98
100 93 90 90 93 100 98 93 96 99 100 100 95 98 94 96 99 99 98 97 100 100 96 97 96 96 96 96 91 92 97 95 98 100 100 100 100 100 99 100 99 97 99
96 88 92 94 95 99 93 99 99 97 100 94 95 95 95 96 94 95 97 99 100 99 100 97 97 100 98 89 84 85 93 97 100 98 95 98 98 98 98 99 97 97 96
81 90 95 96 96 96 96 95 96 95 96 94 93 93 94 93 93 94 95 99 99 100 100 100 100 96 92 88 86 86 92 100 100 98 98 98 98 97 96 98 100 98 98
92 96 93 88 92 96 97 98 97 97 96 94 93 92 92 93 95 98 96 98 98 98 97 96 93 91 90 89 87 94 99 100 100 100 99 98 98 98 100 99 98 100 97
Wind_Speed
13 10 8 9 9 7 7 7 7 8 10 12 14 16 18 18 18 18 19 19 19 20 21 21 22 22 23 22 22 23 26 25 18 38 29 28 29 30 32 31 32 34 36
12 9 12 11 8 7 8 8 9 11 12 13 15 17 19 20 19 19 20 19 21 23 24 22 25 23 22 24 25 28 29 28 26 28 31 30 30 29 31 32 31 31 32
10 13 12 9 7 8 9 9 10 12 14 14 16 19 20 21 21 21 22 23 24 24 25 25 27 25 25 28 30 29 29 28 28 29 34 29 31 29 31 30 29 31 34
11 11 9 6 7 7 8 9 11 12 13 16 17 19 20 21 22 22 22 24 24 25 27 29 29 29 30 32 29 28 29 28 28 28 31 30 29 29 28 28 29 27 32
10 9 7 7 8 8 10 11 11 13 16 17 19 20 20 21 19 20 23 26 28 28 30 28 30 29 28 29 30 32 32 30 29 28 28 27 27 25 25 26 26 28 30
8 6 6 8 8 10 11 12 15 17 17 17 18 19 20 20 18 21 22 24 26 26 24 24 26 24 27 27 28 31 31 28 33 30 30 26 32 29 28 27 26 22 11
6 6 6 7 9 10 12 17 17 17 16 17 18 18 20 20 18 19 20 23 24 25 26 26 27 24 24 27 29 29 32 33 35 36 37 35 35 34 29 27 25 26 27
5 5 5 7 8 13 16 16 17 17 17 18 19 19 20 21 19 19 19 21 22 24 26 25 25 26 26 24 28 31 33 35 34 35 33 33 40 39 32 31 30 31 32
4 5 5 8 12 14 17 17 17 17 18 19 19 18 20 22 19 18 19 20 22 24 23 23 24 24 22 25 29 31 31 29 28 29 32 37 39 38 30 31 27 24 18
4 5 8 11 14 16 15 16 16 18 20 18 18 19 20 21 19 16 18 20 20 19 21 22 17 22 23 27 29 28 25 26 23 29 31 33 34 41 40 38 30 23 21
6 8 11 13 13 14 13 15 17 17 17 18 19 21 21 18 18 16 18 19 21 22 19 19 20 22 25 27 26 26 22 28 25 22 26 27 31 29 31 38 35 31 27
8 8 12 12 12 11 14 14 15 15 16 17 20 21 20 19 18 17 18 20 20 20 21 22 24 26 26 23 26 26 26 23 23 20 21 22 22 25 29 30 31 33 34
7 11 11 11 10 12 12 15 15 15 16 18 19 20 22 22 20 20 20 21 21 22 23 21 26 20 21 22 20 22 20 18 18 19 16 16 18 19 24 27 30 32 32
9 10 11 9 12 12 12 14 15 16 16 18 18 16 18 18 20 22 25 21 19 21 18 14 14 17 17 17 17 16 16 17 18 17 17 20 21 20 19 22 24 24 22
9 11 9 12 12 12 15 16 14 16 16 19 15 17 16 16 21 22 21 20 20 17 16 16 18 18 16 16 16 15 17 18 17 18 18 18 17 17 16 18 17 22 19
9 8 12 13 11 15 16 17 13 11 13 14 15 15 18 18 20 20 20 21 19 19 12 17 18 18 15 16 16 17 16 17 17 18 18 18 17 16 16 17 15 13 12
9 12 13 11 15 15 14 15 15 18 10 10 11 14 15 17 18 18 19 20 16 16 13 16 14 15 16 17 17 17 17 18 19 19 19 18 17 16 16 15 15 13 11
9 11 12 14 12 14 14 12 14 13 15 15 13 14 14 14 16 20 18 17 18 15 14 17 15 16 17 18 19 18 19 20 19 19 18 19 18 16 15 13 13 13 13
10 11 13 9 13 14 14 11 12 13 13 16 19 17 15 17 18 16 15 14 14 15 17 18 19 18 19 20 20 20 20 20 20 20 20 19 19 17 16 15 15 16 16
9 8 11 14 17 13 12 11 11 11 12 13 15 18 21 22 17 22 20 18 17 18 19 20 20 20 20 21 21 22 22 21 22 21 21 21 21 19 18 17 16 15 15
9 8 12 14 13 12 12 12 12 12 12 13 16 17 17 18 20 19 21 20 19 21 22 21 22 22 22 22 23 23 22 23 22 23 22 22 22 20 20 19 18 18 17
7 10 13 12 12 12 12 9 12 12 13 14 17 19 16 19 17 19 21 22 23 23 24 23 23 24 24 24 23 24 25 25 26 24 24 24 24 23 23 22 20 18 17
8 13 12 11 12 11 11 13 11 13 15 15 19 20 22 22 22 23 24 26 25 25 25 24 24 25 24 24 23 24 26 28 29 29 27 28 28 27 25 22 22 18 17
11 12 10 12 12 12 13 12 14 13 13 17 19 20 22 24 26 27 27 27 26 27 25 25 24 24 23 24 25 25 28 30 29 28 32 33 30 24 23 21 16 19 22
10 8 10 12 13 13 13 13 14 16 17 19 21 22 25 26 27 29 29 28 28 27 27 25 23 22 22 23 25 28 30 28 27 32 32 32 25 23 21 23 23 23 22
7 9 12 12 12 13 13 14 16 17 19 20 21 24 26 27 29 29 31 30 29 29 28 24 23 23 24 26 28 30 28 28 30 29 27 24 21 23 23 24 25 24 24
Wind_Direction
200 204 213 219 224 238 258 276 290 298 306 307 309 310 311 308 305 302 300 298 290 289 284 279 277 277 269 266 264 260 256 253 262 281 279 284 284 284 287 287 286 290 291
208 214 224 229 241 259 279 294 302 303 307 308 306 303 301 304 304 299 298 292 289 284 284 277 275 273 268 272 261 255 254 254 254 268 280 284 283 283 283 284 285 284 284
209 222 224 231 249 277 291 298 300 302 302 301 301 300 300 300 300 298 296 294 289 285 284 278 281 276 270 263 256 254 255 257 255 259 273 277 279 280 281 280 280 281 282
200 215 225 245 276 290 295 299 301 301 302 303 303 301 300 300 297 293 287 286 285 285 287 286 286 276 268 266 262 261 262 259 257 258 266 271 271 275 271 275 279 275 278
204 223 247 275 291 299 303 304 301 301 302 300 302 301 299 298 292 287 286 285 286 289 290 289 282 282 270 269 267 264 257 253 251 252 258 262 263 264 257 263 266 273 275
218 237 271 289 302 306 304 301 302 302 301 301 299 301 301 295 289 286 283 283 281 279 281 284 283 278 279 280 280 280 277 266 246 247 252 250 256 255 259 255 260 269 275
221 256 279 296 302 300 300 301 300 303 304 300 301 301 299 301 297 290 286 287 289 286 286 284 287 284 283 283 288 286 282 278 273 258 247 245 253 252 253 257 254 255 262
241 268 288 296 295 298 300 297 299 301 302 303 302 302 303 309 300 297 293 288 289 291 294 296 293 292 291 289 288 284 281 278 277 275 266 257 252 252 246 246 248 256 265
253 275 284 293 298 298 296 295 297 300 304 302 305 307 309 309 309 302 299 296 295 294 299 294 293 289 291 291 293 291 285 283 286 280 276 269 262 258 251 244 239 245 256
265 268 290 298 298 296 292 293 299 304 303 307 307 305 308 301 311 303 300 301 298 294 295 295 289 294 291 295 292 287 289 290 289 287 286 274 267 256 256 254 254 242 238
263 285 295 299 298 293 294 298 302 304 305 304 304 307 308 310 313 303 301 303 301 295 292 294 294 296 297 295 296 301 296 299 300 302 297 286 265 255 250 250 251 247 254
272 287 301 300 299 291 300 303 304 305 304 306 308 307 313 317 319 305 304 305 301 301 297 294 296 299 299 304 305 300 297 306 312 303 295 300 264 252 248 246 244 248 250
273 295 301 302 298 307 306 304 301 303 303 306 304 299 307 320 319 316 305 305 305 304 299 300 304 307 308 304 299 298 308 311 304 297 302 308 311 302 266 253 253 248 251
295 300 307 303 311 309 308 307 301 301 304 300 291 288 297 301 311 318 312 314 309 307 310 297 315 312 309 306 305 306 307 306 303 306 305 305 306 303 289 274 251 245 246
289 302 306 310 313 312 313 310 300 299 292 289 293 303 304 303 312 308 315 317 316 319 317 332 335 331 320 314 311 308 310 312 307 308 304 304 306 307 305 310 271 245 241
301 303 310 308 310 312 315 314 310 296 302 299 302 304 313 309 312 316 320 322 323 320 323 338 327 320 309 309 309 310 310 309 307 309 306 304 304 308 308 309 309 311 275
296 304 309 303 310 315 309 305 310 320 317 311 313 312 311 312 318 318 323 327 329 319 323 321 307 304 305 305 304 306 305 307 309 305 302 300 306 305 310 307 309 308 303
305 304 296 302 311 308 306 306 307 309 317 320 328 323 319 319 322 319 328 324 328 327 314 310 305 302 304 305 307 306 308 309 308 305 304 304 302 299 301 298 298 298 295
308 316 315 313 322 316 310 307 304 309 308 311 322 336 334 328 325 324 325 327 311 305 308 309 316 311 309 309 308 309 307 305 306 308 306 302 301 299 294 291 289 296 298
308 308 321 326 322 322 316 306 307 308 308 310 311 317 333 331 332 331 331 324 306 304 304 304 311 313 313 313 315 315 309 307 306 305 303 301 300 297 289 287 286 284 283
314 322 327 324 328 324 311 308 308 308 309 310 311 325 327 333 325 316 315 309 303 302 306 306 305 306 307 311 315 311 306 301 300 300 300 298 295 292 291 282 279 279 279
295 324 330 333 329 323 318 313 314 314 313 313 318 325 327 328 321 317 317 313 313 311 310 310 307 305 304 305 308 308 306 301 302 300 298 297 295 291 287 279 273 271 272
303 325 326 331 330 326 320 320 316 318 317 319 324 323 330 328 324 322 320 319 318 315 315 311 310 310 308 306 308 307 303 302 304 301 293 292 291 288 276 271 270 262 264
310 322 330 332 333 326 325 322 314 312 312 317 324 323 326 324 322 324 323 323 319 318 317 312 313 310 311 310 310 311 311 310 307 304 302 287 282 286 284 288 266 275 272
315 327 332 329 328 329 327 322 321 320 318 319 320 323 323 323 324 326 326 324 322 319 315 319 316 317 317 315 313 314 314 310 298 299 300 296 292 298 296 287 280 277 268
335 332 332 329 327 326 323 322 323 323 320 320 322 323 323 324 324 323 324 321 317 317 319 322 322 322 319 317 317 318 310 306 306 307 307 308 306 302 294 283 276 271 267